Weather reports worldwide

Advertisment
Linton-On-Ouse, United Kingdom (3266): temperature & dewpoint: 17.02.2019 14:00:00 - 23.02.2019 14:00:00 (GMT)Linton-On-Ouse, United Kingdom (3266): temperature -20cm & temperature -100cm: 17.02.2019 14:00:00 - 23.02.2019 14:00:00 (GMT)Linton-On-Ouse, United Kingdom (3266): wind speed & gusts: 17.02.2019 14:00:00 - 23.02.2019 14:00:00 (GMT)Linton-On-Ouse, United Kingdom (3266): wind direction: 17.02.2019 14:00:00 - 23.02.2019 14:00:00 (GMT)Linton-On-Ouse, United Kingdom (3266): reduced air pressure: 17.02.2019 14:00:00 - 23.02.2019 14:00:00 (GMT)Linton-On-Ouse, United Kingdom (3266): visibility: 17.02.2019 14:00:00 - 23.02.2019 14:00:00 (GMT)Linton-On-Ouse, United Kingdom (3266): precipitation: 17.02.2019 14:00:00 - 23.02.2019 14:00:00 (GMT)
Date & Time tt [°C] td [°C] tt -20cm [°C] tt -100cm [°C] ff [km/h] ff [kn] fx [km/h] fx [kn] dd ppp [hPa] vv [km] rr [mm]
23.02.2019 14:00:00 - - - - - - - - - - - -
23.02.2019 13:00:00 12,3 7,9 - - 21 11 - - S 1031,2 6 0,0
23.02.2019 12:00:00 10,3 7,1 - - 21 11 - - S 1031,9 5 0,0
23.02.2019 11:00:00 7,7 6,6 - - 18 10 - - SSE 1032,3 3,3 0,0
23.02.2019 10:00:00 6,7 6,1 - - 21 11 - - SSE 1032,6 2,3 0,0
23.02.2019 09:00:00 6,2 5,9 6,7 6,7 21 11 - - SSE 1032,9 1,8 0,0
23.02.2019 08:00:00 5,5 5,2 - - 15 8 - - SSE 1032,7 1,3 0,0
23.02.2019 07:00:00 5,3 4,8 - - 15 8 - - SSE 1032,4 1,8 0,0
23.02.2019 06:00:00 5,2 4,6 - - 18 10 - - SE 1032,7 2,2 0,0
23.02.2019 05:00:00 5,7 4,4 - - 21 11 - - SSE 1032,4 3,4 0,0
23.02.2019 04:00:00 6,4 5,7 - - 16 9 - - SSE 1032,2 2,6 0,0
23.02.2019 03:00:00 6,7 6,1 - - 18 10 - - SE 1032,2 2,3 0,0
23.02.2019 02:00:00 7,1 6,4 - - 15 8 - - SE 1032,4 2,8 0,0
23.02.2019 01:00:00 7,4 6,2 - - 15 8 - - SE 1032,6 3,9 0,0
23.02.2019 00:00:00 8,3 6,7 - - 11 6 - - SE 1032,7 6 0,0
22.02.2019 23:00:00 8,8 6,7 - - 13 7 - - SE 1032,6 7 0,0
22.02.2019 22:00:00 9,4 7,1 - - 15 8 - - SE 1033,0 7 0,0
22.02.2019 21:00:00 9,9 7,8 - - 16 9 - - SE 1033,2 8 0,0
22.02.2019 20:00:00 9,7 7,1 - - 11 6 - - ESE 1033,7 9 0,0
22.02.2019 19:00:00 10,0 7,1 - - 11 6 - - SE 1033,6 10 0,0
22.02.2019 18:00:00 11,7 7,3 - - 15 8 - - ESE 1033,1 11 0,0
22.02.2019 17:00:00 13,9 7,4 - - 11 6 - - SE 1033,0 10 0,0
22.02.2019 16:00:00 15,3 8,0 - - 18 10 - - SSE 1033,2 10 0,0
22.02.2019 15:00:00 15,6 7,3 - - 22 12 - - SSE 1033,3 10 0,0
22.02.2019 14:00:00 14,6 9,0 - - 13 7 - - SE 1033,8 10 0,0
22.02.2019 13:00:00 12,1 9,2 - - 5 3 - - S 1034,0 10 0,0
22.02.2019 12:00:00 10,1 7,5 - - 13 7 - - SE 1034,1 7 0,0
22.02.2019 11:00:00 8,9 8,4 - - 9 5 - - ESE 1034,5 5 0,0
22.02.2019 10:00:00 6,9 6,8 - - 4 2 - - ESE 1034,3 4,0 0,0
22.02.2019 09:00:00 5,2 5,1 6,7 6,5 9 5 - - ESE 1033,8 2,0 0,0
22.02.2019 08:00:00 3,2 3,2 - - 9 5 - - E 1032,8 0,1 0,0
22.02.2019 07:00:00 1,4 1,2 - - 8 4 - - N 1032,3 0,1 0,0
22.02.2019 06:00:00 1,7 1,4 - - 8 4 - - ESE 1031,5 0,1 0,0
22.02.2019 05:00:00 3,3 3,2 - - 5 3 - - E 1031,2 0,1 0,0
22.02.2019 04:00:00 3,8 3,7 - - 8 4 - - E 1031,1 0,3 0,2
22.02.2019 03:00:00 3,7 3,6 - - 8 4 - - ESE 1030,6 2,2 0,0
22.02.2019 02:00:00 2,9 2,7 - - 2 1 - - E 1030,4 2,3 0,0
22.02.2019 01:00:00 2,3 1,8 - - 5 3 - - E 1029,7 1,6 0,0
22.02.2019 00:00:00 4,8 4,6 - - 4 2 - - SE 1029,5 2,4 0,0
21.02.2019 23:00:00 4,8 4,1 - - 2 1 - - SSE 1029,0 0,1 0,0
21.02.2019 22:00:00 5,3 4,1 - - 4 2 - - S 1028,2 5 0,0
21.02.2019 21:00:00 8,7 7,8 - - 5 3 - - S 1027,9 4,5 0,0
21.02.2019 20:00:00 7,3 5,2 - - 4 2 - - S 1027,1 6 0,0
21.02.2019 19:00:00 10,1 8,5 - - 5 3 - - S 1026,6 10 0,0
21.02.2019 18:00:00 11,0 8,5 - - 4 2 - - NNW 1025,8 20 0,0
21.02.2019 17:00:00 13,3 8,8 - - 5 3 - - WNW 1025,1 22 0,0
21.02.2019 16:00:00 14,1 9,4 - - 15 8 - - WSW 1024,3 20 0,0
21.02.2019 15:00:00 13,8 9,7 - - 11 6 - - W 1024,0 10 0,0
21.02.2019 14:00:00 13,8 10,0 - - 13 7 - - W 1023,5 23 0,0
21.02.2019 13:00:00 12,5 9,7 - - 15 8 - - W 1023,2 10 0,0
21.02.2019 12:00:00 12,6 9,6 - - 16 9 - - W 1022,7 10 0,0
21.02.2019 11:00:00 13,0 9,9 - - 18 10 - - W 1022,0 10 0,0
21.02.2019 10:00:00 13,1 10,2 - - 24 13 - - W 1021,2 10 0,0
21.02.2019 09:00:00 11,5 9,0 6,7 6,4 5 3 - - SSW 1020,8 25 0,0
21.02.2019 08:00:00 10,3 8,2 - - 16 9 - - WSW 1019,9 10 0,0
21.02.2019 07:00:00 10,6 8,3 - - 11 6 - - SW 1018,9 10 0,0
21.02.2019 06:00:00 10,5 8,6 - - 13 7 - - SSW 1018,1 22 0,0
21.02.2019 05:00:00 9,1 7,6 - - 5 3 - - ESE 1018,0 10 0,0
21.02.2019 04:00:00 9,4 7,6 - - 11 6 - - SSW 1017,5 10 0,0
21.02.2019 03:00:00 10,3 7,9 - - 21 11 - - S 1017,3 20 0,0
21.02.2019 02:00:00 10,2 7,6 - - 13 7 - - SSE 1017,3 10 0,0
21.02.2019 01:00:00 10,7 7,6 - - 21 11 - - SSW 1017,5 26 0,0
21.02.2019 00:00:00 10,6 7,3 - - 18 10 - - SSW 1017,0 10 0,0
20.02.2019 23:00:00 10,4 7,0 - - 18 10 - - SSW 1016,4 23 0,0
20.02.2019 22:00:00 10,8 7,2 - - 18 10 - - S 1016,2 23 0,0
20.02.2019 21:00:00 10,7 7,2 - - 21 11 - - SW 1015,7 22 0,0
20.02.2019 20:00:00 10,2 7,2 - - 18 10 - - SSW 1015,7 19 0,0
20.02.2019 19:00:00 10,2 7,0 - - 18 10 - - SSW 1015,3 20 0,0
20.02.2019 18:00:00 9,6 7,2 - - 13 7 - - S 1015,2 18 0,0
20.02.2019 17:00:00 10,1 7,4 - - 16 9 - - S 1015,0 20 0,2
20.02.2019 16:00:00 10,5 7,3 - - 29 16 - - SSW 1014,9 15 0,6
20.02.2019 15:00:00 11,6 6,8 - - 24 13 - - SW 1014,7 25 -
20.02.2019 14:00:00 11,7 6,8 - - 16 9 - - SSW 1014,7 25 -
20.02.2019 13:00:00 11,6 6,8 - - 22 12 - - SSW 1014,4 10 0,0
20.02.2019 12:00:00 10,8 6,7 - - 18 10 - - SSW 1014,7 25 0,0
20.02.2019 11:00:00 10,6 6,8 - - 13 7 - - SSW 1014,5 10 0,0
20.02.2019 10:00:00 10,0 6,4 - - 22 12 - - SSW 1014,1 10 0,0
20.02.2019 09:00:00 8,8 6,4 6,2 6,2 18 10 - - SSW 1013,5 10 0,0
20.02.2019 08:00:00 7,9 6,2 - - 9 5 - - S 1013,1 10 0,0
20.02.2019 07:00:00 8,1 6,1 - - 15 8 - - S 1012,4 10 0,0
20.02.2019 06:00:00 7,9 6,2 - - 16 9 - - SSW 1012,3 10 0,0
20.02.2019 05:00:00 7,0 6,0 - - 15 8 - - S 1012,3 13 0,4
20.02.2019 04:00:00 6,9 5,9 - - 21 11 - - SSE 1012,4 7 0,4
20.02.2019 03:00:00 6,8 5,9 - - 16 9 - - S 1012,6 7 0,4
20.02.2019 02:00:00 6,8 5,7 - - 18 10 - - SSE 1013,1 14 0,0
20.02.2019 01:00:00 6,6 5,5 - - 16 9 - - SSE 1013,3 8 0,6
20.02.2019 00:00:00 6,8 5,5 - - 18 10 - - S 1013,4 10 1,2
19.02.2019 23:00:00 7,0 5,1 - - 15 8 - - S 1013,7 15 0,2
19.02.2019 22:00:00 7,6 4,6 - - 16 9 - - S 1013,8 21 0,0
19.02.2019 21:00:00 7,6 4,0 - - 13 7 - - SSE 1014,0 12 0,0
19.02.2019 20:00:00 8,2 3,5 - - 16 9 - - S 1014,2 10 0,0
19.02.2019 19:00:00 8,0 3,4 - - 11 6 - - S 1014,4 23 0,0
19.02.2019 18:00:00 7,8 4,0 - - 4 2 - - S 1014,3 23 0,0
19.02.2019 17:00:00 8,0 4,2 - - 11 6 - - SW 1014,4 10 0,0
19.02.2019 16:00:00 8,4 3,8 - - 16 9 - - SW 1014,5 10 0,0
19.02.2019 15:00:00 8,8 2,9 - - 18 10 - - WSW 1014,8 10 0,0
19.02.2019 14:00:00 9,3 3,1 - - 18 10 - - WSW 1015,0 10 0,0
19.02.2019 13:00:00 9,4 2,6 - - 24 13 - - WSW 1015,1 10 0,0
19.02.2019 12:00:00 9,5 3,9 - - 24 13 - - W 1014,9 10 0,0
19.02.2019 11:00:00 9,3 5,0 - - 22 12 - - W 1014,4 10 0,0
19.02.2019 10:00:00 8,6 4,8 - - 21 11 - - WSW 1014,5 10 0,0
19.02.2019 09:00:00 7,6 4,8 6,2 6,2 16 9 - - W 1013,9 10 0,0
19.02.2019 08:00:00 5,8 4,3 - - 15 8 - - WSW 1013,3 10 0,0
19.02.2019 07:00:00 6,4 3,8 - - 16 9 - - W 1012,9 10 0,0
19.02.2019 06:00:00 6,4 4,1 - - 9 5 - - WSW 1012,5 23 0,0
19.02.2019 05:00:00 7,4 4,5 - - 15 8 - - W 1012,1 10 0,0
19.02.2019 04:00:00 8,0 5,3 - - 18 10 - - W 1011,4 26 0,0
19.02.2019 03:00:00 8,0 5,4 - - 16 9 - - W 1011,0 10 0,0
19.02.2019 02:00:00 8,1 5,5 - - 15 8 - - WSW 1010,9 10 0,0
19.02.2019 01:00:00 7,8 5,4 - - 16 9 - - WSW 1010,5 19 0,0
19.02.2019 00:00:00 7,1 5,5 - - 15 8 - - WSW 1010,1 10 0,0
18.02.2019 23:00:00 7,6 4,9 - - 16 9 - - SW 1009,6 22 0,0
18.02.2019 22:00:00 7,6 4,2 - - 24 13 - - SW 1009,6 10 0,0
18.02.2019 21:00:00 7,8 3,5 - - 24 13 46 25 WSW 1009,6 10 0,0
18.02.2019 20:00:00 8,7 3,7 - - 26 14 - - SW 1009,1 10 0,0
18.02.2019 19:00:00 8,4 3,8 - - 21 11 - - WSW 1009,4 22 0,0
18.02.2019 18:00:00 8,4 3,5 - - 13 7 - - SSW 1009,1 10 0,0
18.02.2019 17:00:00 8,6 3,6 - - 21 11 - - SW 1008,5 10 0,0
18.02.2019 16:00:00 9,2 2,9 - - 31 17 55 30 WSW 1008,4 10 0,0
18.02.2019 15:00:00 10,5 1,6 - - 28 15 48 26 SW 1008,1 10 0,0
18.02.2019 14:00:00 10,3 2,3 - - 29 16 50 27 WSW 1008,5 10 0,0
18.02.2019 13:00:00 10,6 3,8 - - 28 15 - - SW 1008,7 10 0,0
18.02.2019 12:00:00 10,2 4,5 - - 26 14 46 25 SW 1009,5 30 0,0
18.02.2019 11:00:00 10,2 4,4 - - 28 15 - - SW 1009,2 10 0,0
18.02.2019 10:00:00 9,2 5,2 - - 26 14 - - S 1009,3 10 0,0
18.02.2019 09:00:00 7,7 5,0 6,0 6,0 18 10 - - S 1009,6 10 0,0
18.02.2019 08:00:00 6,9 4,8 - - 21 11 - - S 1009,6 10 0,0
18.02.2019 07:00:00 6,9 4,8 - - 16 9 - - S 1009,6 10 0,0
18.02.2019 06:00:00 6,6 4,6 - - 8 4 - - ESE 1010,0 10 0,0
18.02.2019 05:00:00 7,6 5,0 - - 13 7 - - S 1009,8 10 0,0
18.02.2019 04:00:00 7,6 5,3 - - 16 9 - - S 1010,1 16 0,0
18.02.2019 03:00:00 7,4 5,0 - - 18 10 - - S 1010,3 16 0,0
18.02.2019 02:00:00 7,8 5,0 - - 21 11 - - S 1010,6 18 0,0
18.02.2019 01:00:00 7,1 5,3 - - 11 6 - - SSE 1010,9 12 0,0
18.02.2019 00:00:00 7,9 4,9 - - 18 10 - - S 1010,5 17 0,0
17.02.2019 23:00:00 8,8 4,3 - - 26 14 - - S 1010,6 21 0,0
17.02.2019 22:00:00 8,8 3,3 - - 28 15 - - SSW 1010,8 22 0,0
17.02.2019 21:00:00 9,3 3,4 - - 22 12 - - SSW 1010,6 24 0,0
17.02.2019 20:00:00 7,5 4,6 - - 8 4 - - SE 1010,3 10 0,0
17.02.2019 19:00:00 9,4 4,8 - - 15 8 - - S 1010,2 10 0,0
17.02.2019 18:00:00 10,2 5,7 - - 16 9 - - S 1009,6 17 0,0
17.02.2019 17:00:00 11,4 6,0 - - 21 11 - - S 1009,1 10 0,0
17.02.2019 16:00:00 13,1 6,5 - - 26 14 - - SSW 1008,9 10 0,0
17.02.2019 15:00:00 13,1 6,2 - - 22 12 - - SSW 1008,9 24 0,0
17.02.2019 14:00:00 14,0 7,2 - - 26 14 - - SSW 1008,9 22 0,0

tt = temperature
td = dewpoint
tt -20cm = temperature -20cm
tt -100cm = temperature -100cm
ff = wind speed
fx = gusts
dd = wind direction
ppp = reduced air pressure
vv = visibility
rr = precipitation

Next stations